Temperature
3 2 2 2 2 1 1 3 4 4 3 3 2 1 -0 -2 -3 -3 -4 -4 -4 -4 -5 -5 -5 -5 -5 -5 -5 -5 -6 -6 -6 -6 -6 -6 -6 -6 -6 -6 -6 -6 -6 -6
1 1 1 1 1 1 1 2 2 2 2 1 -0 -1 -2 -3 -3 -4 -4 -4 -5 -5 -5 -5 -6 -6 -6 -6 -6 -6 -6 -6 -7 -7 -7 -7 -7 -7 -7 -7 -7 -7 -7 -7
3 1 0 2 2 1 1 0 1 2 2 -0 -1 -2 -2 -3 -4 -4 -5 -5 -5 -5 -6 -6 -6 -6 -6 -6 -7 -7 -7 -7 -7 -7 -7 -8 -8 -8 -8 -8 -7 -7 -7 -7
1 1 2 4 -0 0 0 -0 -1 -0 -1 -1 -2 -3 -4 -4 -4 -5 -5 -5 -5 -6 -6 -6 -7 -7 -7 -7 -7 -7 -7 -7 -8 -8 -8 -8 -8 -8 -8 -8 -8 -8 -8 -8
1 2 3 2 -1 -1 -1 -0 -1 -2 -2 -3 -4 -4 -4 -4 -5 -5 -5 -6 -6 -6 -6 -7 -7 -7 -7 -7 -8 -8 -8 -8 -8 -8 -8 -9 -9 -9 -9 -9 -9 -8 -9 -9
-0 1 3 3 -1 -3 -1 0 -2 -3 -3 -4 -4 -2 -2 -5 -5 -6 -6 -6 -6 -6 -7 -7 -7 -8 -8 -8 -8 -8 -8 -9 -9 -9 -9 -9 -9 -9 -9 -9 -9 -9 -9 -9
-0 1 2 -0 -3 -3 0 1 -3 -4 -4 -5 -4 -4 -5 -6 -6 -6 -6 -7 -7 -7 -7 -7 -8 -8 -8 -8 -9 -9 -9 -9 -9 -9 -9 -9 -9 -9 -9 -9 -9 -9 -9 -9
-1 -0 1 -3 -4 -2 -1 -4 -4 -4 -5 -5 -6 -6 -6 -6 -7 -7 -7 -7 -7 -7 -8 -8 -8 -9 -9 -9 -9 -9 -9 -9 -9 -9 -9 -10 -10 -10 -10 -10 -10 -10 -10 -10
-1 -0 -3 -5 -4 -4 -4 -5 -5 -5 -6 -6 -6 -7 -7 -7 -7 -7 -8 -8 -8 -8 -8 -8 -9 -9 -9 -9 -9 -9 -9 -9 -9 -10 -10 -10 -10 -10 -10 -10 -10 -10 -11 -10
-4 -4 -5 -6 -5 -5 -5 -5 -5 -6 -6 -6 -7 -7 -7 -8 -8 -8 -8 -8 -8 -9 -9 -9 -9 -9 -10 -10 -10 -10 -10 -10 -10 -10 -10 -10 -10 -10 -11 -11 -11 -11 -11 -11
-4 -5 -6 -6 -6 -6 -6 -6 -6 -6 -7 -7 -7 -8 -8 -8 -8 -8 -9 -9 -9 -9 -9 -9 -9 -10 -10 -10 -10 -10 -10 -10 -10 -10 -11 -11 -11 -11 -11 -11 -11 -11 -11 -11
-3 -5 -5 -5 -6 -6 -6 -6 -6 -7 -7 -7 -8 -8 -8 -8 -8 -9 -9 -9 -9 -9 -10 -10 -10 -10 -10 -10 -10 -10 -10 -11 -11 -11 -11 -11 -11 -11 -11 -11 -11 -11 -11 -11
-6 -6 -6 -6 -7 -7 -7 -7 -7 -7 -8 -8 -8 -8 -9 -9 -9 -9 -9 -9 -10 -10 -10 -10 -10 -10 -11 -11 -11 -11 -11 -11 -11 -11 -11 -11 -12 -12 -11 -11 -11 -11 -11 -11
-7 -7 -8 -8 -8 -8 -8 -8 -8 -8 -8 -8 -9 -9 -9 -9 -9 -10 -10 -10 -10 -10 -10 -10 -11 -11 -11 -11 -11 -11 -11 -11 -12 -12 -12 -12 -12 -12 -12 -12 -12 -12 -11 -11
-7 -8 -8 -8 -8 -9 -9 -9 -9 -9 -9 -9 -9 -9 -9 -10 -10 -10 -10 -10 -10 -10 -11 -11 -11 -11 -11 -11 -12 -12 -12 -12 -12 -12 -12 -12 -12 -12 -12 -12 -12 -12 -12 -11
-8 -8 -9 -9 -9 -9 -9 -9 -9 -9 -9 -9 -10 -10 -10 -10 -10 -10 -10 -11 -11 -11 -11 -11 -11 -11 -12 -12 -12 -12 -12 -12 -12 -12 -12 -12 -12 -12 -12 -12 -12 -12 -12 -12
-9 -10 -10 -10 -10 -10 -10 -10 -10 -10 -10 -10 -10 -10 -10 -10 -11 -11 -11 -11 -11 -11 -12 -12 -12 -12 -12 -12 -12 -12 -12 -12 -12 -12 -12 -13 -13 -13 -13 -13 -13 -13 -12 -12
-9 -9 -9 -9 -9 -10 -10 -10 -10 -10 -10 -10 -11 -11 -11 -11 -11 -11 -11 -11 -11 -12 -12 -12 -12 -12 -12 -12 -13 -13 -13 -13 -13 -13 -13 -13 -13 -13 -13 -13 -13 -13 -13 -13
-10 -10 -10 -10 -10 -10 -10 -10 -10 -10 -11 -11 -11 -11 -11 -11 -11 -11 -12 -12 -12 -12 -12 -12 -12 -12 -13 -13 -13 -13 -13 -13 -13 -13 -13 -13 -13 -13 -13 -13 -13 -13 -13 -13
-10 -10 -10 -10 -10 -10 -11 -11 -11 -11 -11 -11 -11 -11 -11 -11 -12 -12 -12 -12 -12 -12 -12 -12 -13 -13 -13 -13 -13 -13 -13 -13 -13 -13 -13 -13 -13 -13 -13 -13 -13 -13 -13 -13
-11 -11 -11 -11 -11 -11 -11 -11 -11 -11 -11 -11 -11 -11 -12 -12 -12 -12 -12 -12 -12 -12 -12 -13 -13 -13 -13 -13 -13 -13 -13 -13 -13 -13 -14 -14 -14 -14 -14 -14 -14 -14 -14 -13
-11 -11 -11 -11 -11 -11 -11 -11 -11 -11 -11 -12 -12 -12 -12 -12 -12 -12 -12 -12 -13 -13 -13 -13 -13 -13 -13 -14 -14 -13 -13 -13 -14 -14 -14 -14 -14 -14 -14 -14 -14 -14 -14 -14
-11 -11 -11 -11 -11 -11 -11 -11 -11 -12 -12 -12 -12 -12 -12 -13 -13 -13 -13 -13 -13 -13 -13 -13 -13 -13 -14 -14 -13 -13 -13 -13 -14 -14 -14 -14 -14 -14 -14 -14 -14 -14 -14 -14
-11 -11 -12 -12 -12 -12 -12 -12 -12 -12 -12 -12 -12 -12 -13 -13 -13 -13 -13 -13 -13 -13 -13 -13 -13 -13 -14 -14 -14 -13 -13 -14 -14 -14 -14 -14 -14 -14 -14 -14 -14 -14 -14 -14
-12 -12 -12 -12 -12 -12 -12 -12 -12 -12 -12 -12 -12 -13 -13 -13 -13 -13 -13 -13 -13 -13 -13 -13 -14 -14 -14 -14 -14 -14 -14 -14 -14 -14 -14 -14 -14 -14 -14 -14 -14 -14 -14 -14
-12 -12 -12 -12 -12 -12 -12 -13 -13 -13 -13 -13 -13 -13 -13 -13 -13 -13 -13 -13 -13 -13 -14 -14 -14 -14 -14 -14 -14 -14 -14 -14 -14 -14 -14 -14 -14 -14 -14 -14 -14 -14 -14 -14
-12 -12 -12 -12 -13 -13 -13 -13 -13 -13 -13 -13 -13 -13 -14 -14 -14 -14 -14 -14 -14 -14 -14 -14 -14 -14 -14 -14 -14 -14 -14 -14 -14 -14 -14 -14 -14 -14 -14 -14 -14 -14 -14 -14
Wind_Speed
9 7 5 8 9 11 13 13 12 13 14 14 10 7 5 4 4 4 4 4 4 5 4 4 4 4 4 4 4 5 6 6 7 7 7 7 8 8 8 8 9 9 9 9
7 6 6 9 12 14 15 14 16 17 16 9 6 4 5 5 4 4 5 5 5 5 5 5 5 5 5 5 5 5 6 7 6 6 7 7 8 8 9 9 9 9 9 10
6 3 4 9 10 12 8 9 9 13 10 5 5 5 6 6 5 5 5 6 5 5 5 5 5 5 5 5 5 6 6 6 6 6 7 8 8 9 9 9 9 9 10 10
3 2 8 3 2 5 8 9 10 8 6 5 6 5 5 5 4 5 5 6 5 5 5 5 5 5 5 5 5 6 6 6 6 7 8 8 8 9 9 9 9 9 10 10
3 6 9 4 3 4 6 7 7 10 9 7 4 4 4 3 3 4 5 5 5 5 5 4 4 4 5 5 6 6 6 7 7 7 8 8 9 9 9 9 9 9 10 10
4 6 8 3 2 2 2 5 3 5 6 4 2 4 3 1 3 4 4 4 4 4 4 4 4 4 5 5 6 7 7 8 8 8 8 8 9 9 8 8 9 9 10 10
8 8 8 0 2 4 4 3 1 3 4 4 4 5 3 3 4 4 4 4 4 4 4 4 4 4 5 6 6 7 7 8 8 8 8 9 9 8 8 8 9 9 10 9
6 8 8 4 6 5 2 2 1 1 2 3 3 3 3 4 4 4 4 4 4 4 5 4 3 4 5 6 7 6 7 7 8 8 8 7 8 8 7 7 8 8 8 9
7 5 1 3 3 2 1 2 2 3 3 3 3 4 4 4 5 4 4 4 4 4 5 4 4 4 6 6 6 6 7 7 8 8 7 7 7 7 7 6 6 7 7 8
5 6 4 4 3 3 2 3 3 3 3 3 4 4 5 5 5 4 4 4 4 4 5 5 5 5 6 6 5 6 7 7 7 7 7 7 6 6 6 6 6 7 7 8
5 5 4 4 4 3 3 2 2 2 3 3 4 4 5 5 5 4 4 4 4 4 5 6 6 6 6 5 5 6 6 6 6 6 6 6 6 6 7 6 7 8 7 7
6 3 4 5 3 3 3 3 3 3 3 3 3 4 5 5 4 4 4 5 5 5 6 6 6 6 6 5 5 5 5 6 5 5 5 5 6 6 8 9 11 11 11 11
4 4 4 4 3 2 3 4 4 3 4 4 4 4 4 5 5 4 5 5 5 6 6 6 6 6 6 5 5 5 5 6 5 5 5 5 5 6 7 8 9 10 11 12
3 2 3 3 4 3 3 3 3 3 4 3 3 4 4 4 5 5 5 5 6 6 6 6 6 6 6 5 5 5 5 6 5 5 5 5 5 6 6 7 7 7 8 11
3 3 3 3 2 2 2 2 3 4 4 4 3 3 4 4 5 6 6 5 5 6 6 5 6 6 5 5 5 5 5 4 5 5 5 5 5 5 6 6 6 7 7 8
3 2 1 1 2 2 2 2 3 5 5 5 5 5 5 5 6 6 5 5 5 6 6 6 6 6 5 5 5 5 4 6 6 5 5 5 5 5 5 5 6 6 7 7
0 1 2 3 4 4 4 4 5 5 5 5 5 5 4 4 5 5 5 5 5 6 6 6 6 6 5 5 5 4 4 4 6 5 4 5 5 5 5 5 6 6 6 8
3 3 3 4 4 5 5 5 5 5 5 5 5 4 4 5 5 6 6 6 6 6 5 5 5 5 5 5 4 4 3 4 4 4 4 5 5 5 5 5 6 6 6 7
1 1 2 3 3 3 4 5 5 5 5 4 4 5 5 5 5 5 5 5 5 6 5 4 6 5 4 5 5 3 3 4 4 4 4 6 6 5 5 5 6 6 6 6
2 2 2 2 2 2 3 4 4 4 4 4 4 4 4 5 4 5 5 5 5 4 5 5 5 4 4 4 5 3 3 4 4 4 5 5 5 5 5 5 6 6 6 6
2 2 2 2 3 3 3 3 3 4 4 4 3 4 5 5 4 4 4 5 4 4 4 5 4 4 4 4 5 3 3 4 4 4 4 5 5 5 6 6 6 6 6 6
2 2 3 3 3 4 4 3 3 3 4 3 4 3 4 4 4 4 4 4 4 5 5 4 3 5 6 5 3 3 3 4 4 4 4 5 5 5 6 6 6 6 6 6
2 2 3 3 3 4 4 3 3 3 3 3 4 4 4 4 4 3 4 3 3 5 5 4 5 7 7 4 3 3 4 4 4 5 5 5 5 6 6 7 6 6 7 7
2 2 3 3 3 3 4 4 4 3 3 4 4 4 4 4 3 3 3 5 6 6 4 5 7 7 6 3 3 4 4 4 5 5 5 5 5 6 6 6 6 6 7 8
2 2 2 2 3 3 4 4 4 4 4 3 4 4 3 3 3 4 4 4 5 6 4 5 7 7 5 3 4 4 4 5 5 5 5 6 6 6 6 6 6 7 7 7
2 2 2 2 3 3 3 3 3 3 3 4 4 4 3 3 3 3 3 4 4 5 4 4 5 5 4 4 4 5 5 5 6 5 6 6 7 7 7 7 8 7 7 7
2 2 2 3 3 3 3 3 3 3 3 3 4 5 4 4 3 4 4 4 4 4 4 4 4 4 4 4 5 5 5 5 5 6 6 6 6 6 7 8 7 7 7 8
Wind_Direction
269 276 259 252 242 223 224 236 247 259 261 272 274 270 273 275 268 265 269 277 282 285 281 277 278 284 290 298 301 301 297 287 286 291 293 295 298 299 300 300 300 300 299 298
265 259 256 264 254 238 237 243 248 261 269 280 280 274 269 263 257 258 269 282 288 286 280 276 280 287 292 297 299 299 293 284 283 288 291 293 295 297 298 298 299 299 297 297
262 273 280 261 241 222 219 222 227 243 256 267 272 263 261 261 253 256 275 286 285 279 273 273 277 283 288 294 297 295 292 286 282 286 289 292 295 295 296 297 298 297 296 295
258 262 248 256 88 200 216 232 228 244 263 268 274 285 276 262 249 265 282 289 285 279 277 279 282 286 293 294 292 292 296 297 293 290 290 293 294 294 296 297 296 296 296 296
223 253 268 261 194 183 214 253 228 238 255 270 287 294 273 247 253 269 283 287 284 279 278 281 284 292 291 288 291 293 297 300 300 292 290 292 292 293 294 295 293 295 296 296
218 243 256 262 140 151 186 258 208 219 238 249 242 268 283 318 293 292 297 293 289 288 288 286 291 289 283 286 292 295 298 298 297 295 292 291 289 289 290 290 291 295 295 295
228 243 260 272 144 163 213 280 138 210 224 216 239 276 302 308 307 304 304 297 291 287 283 285 290 285 283 288 290 295 298 297 297 296 293 290 290 288 288 289 292 293 293 293
209 227 247 143 154 196 265 354 299 250 242 246 263 284 294 299 301 305 308 307 299 291 290 293 290 285 286 289 298 302 300 298 299 298 296 294 293 293 290 289 291 293 296 299
209 227 349 164 203 250 297 281 288 277 265 249 266 278 289 296 298 300 303 304 300 289 290 296 292 285 286 295 303 303 302 301 301 300 297 295 293 293 295 292 291 295 298 301
248 261 272 257 259 276 281 285 288 272 259 259 263 272 284 289 293 298 300 302 302 296 295 301 302 296 293 299 301 301 300 301 301 302 302 301 296 293 294 296 296 295 299 303
254 278 298 266 256 262 285 296 295 291 274 256 256 268 277 284 287 288 293 298 298 294 295 300 305 303 304 303 302 300 299 298 301 302 304 304 300 295 293 290 295 305 306 305
255 255 255 276 274 270 264 276 278 282 288 280 263 267 278 282 284 284 287 293 295 294 296 300 304 303 306 307 302 299 300 302 302 304 305 306 305 306 301 301 305 307 308 310
270 300 289 285 287 278 275 282 285 280 276 285 285 276 277 283 284 284 286 289 289 290 291 296 300 301 305 308 303 297 297 299 298 300 302 303 304 306 310 313 312 311 312 316
265 288 285 276 283 293 294 303 305 301 295 289 285 286 283 284 285 284 285 288 290 291 290 293 296 298 305 306 301 298 300 299 299 296 298 299 300 301 303 307 311 314 317 319
282 287 274 290 299 306 307 313 312 303 304 305 299 287 282 281 282 285 289 293 293 291 292 294 295 299 308 302 298 298 302 305 306 304 301 299 300 299 300 301 303 308 315 322
312 318 286 270 280 291 295 295 290 289 293 294 293 289 284 281 283 286 288 289 287 289 291 291 290 299 307 303 301 298 299 309 314 310 307 307 305 301 301 303 306 309 314 321
217 274 273 277 276 281 280 279 275 278 282 282 284 286 285 285 289 290 292 293 287 283 283 282 287 298 300 299 299 299 303 309 314 312 308 306 304 303 300 300 303 307 309 313
256 253 244 249 256 268 280 286 282 281 281 281 281 274 271 274 281 288 295 300 300 296 291 287 291 297 299 300 301 297 297 302 306 308 309 309 309 306 302 302 305 306 309 313
312 288 275 276 272 266 270 277 283 286 287 281 274 272 273 274 279 287 293 296 296 299 303 303 303 303 300 300 305 292 293 300 305 307 308 310 313 312 308 304 304 305 308 312
345 339 325 314 308 292 283 286 288 286 284 280 277 281 285 286 287 289 291 286 280 285 294 298 301 300 300 296 300 293 296 300 302 304 306 306 307 309 309 307 307 308 311 312
344 339 332 322 316 309 296 288 280 281 287 281 272 275 282 289 287 283 286 293 301 300 298 300 304 301 299 296 299 296 296 297 298 298 299 301 304 306 309 309 310 311 311 311
326 322 319 317 316 315 313 305 289 285 289 288 285 282 286 292 295 292 281 276 293 307 313 304 301 300 306 307 300 296 294 292 291 292 294 297 300 303 306 307 306 308 308 309
317 314 314 313 313 314 319 318 308 296 289 289 285 282 282 286 288 288 300 299 299 305 310 299 301 307 314 314 301 295 293 291 289 290 292 294 295 297 300 301 301 303 305 307
323 324 324 326 330 331 329 328 326 318 309 303 295 289 287 293 298 288 283 299 308 308 304 299 308 312 317 313 301 296 293 291 291 291 292 292 293 294 295 296 297 299 300 302
321 326 335 337 330 321 321 328 333 334 331 324 319 316 305 293 291 303 303 298 303 310 307 306 310 314 313 301 297 293 291 289 291 293 291 292 293 294 293 294 293 295 297 297
325 321 313 309 311 317 323 326 327 328 330 328 328 326 324 317 306 302 303 302 301 307 308 304 306 307 303 298 295 294 292 294 296 296 292 292 291 291 291 294 294 293 293 293
340 339 335 339 339 334 328 325 323 323 324 319 317 321 324 323 319 316 313 309 308 308 306 304 304 303 301 298 297 296 295 293 292 291 291 291 290 290 291 292 292 291 291 291
Height
1518 1518 1518 1517 1518 1521 1520 1512 1508 1499 1501 1499 1503 1505 1506 1507 1507 1507 1506 1505 1504 1503 1502 1500 1499 1498 1497 1495 1494 1493 1491 1490 1488 1486 1485 1482 1480 1478 1476 1473 1471 1468 1466 1464
1518 1519 1519 1517 1513 1513 1513 1511 1507 1504 1501 1501 1502 1504 1504 1504 1504 1503 1503 1502 1501 1499 1498 1496 1495 1494 1492 1491 1490 1489 1487 1485 1484 1482 1480 1478 1476 1473 1471 1469 1466 1464 1461 1459
1510 1517 1517 1506 1502 1505 1506 1504 1504 1500 1497 1500 1501 1501 1501 1501 1501 1500 1500 1498 1497 1495 1494 1493 1492 1490 1489 1487 1486 1484 1482 1481 1479 1477 1475 1473 1471 1468 1466 1464 1461 1459 1456 1454
1513 1515 1507 1493 1500 1500 1501 1500 1501 1499 1498 1498 1499 1498 1498 1498 1498 1497 1496 1495 1493 1492 1490 1489 1488 1486 1485 1483 1482 1480 1478 1476 1475 1473 1470 1468 1466 1464 1461 1459 1456 1454 1451 1449
1512 1504 1492 1493 1498 1500 1500 1495 1497 1497 1496 1497 1497 1496 1495 1495 1495 1494 1493 1492 1490 1489 1487 1485 1484 1482 1481 1480 1478 1476 1474 1472 1470 1468 1466 1464 1461 1459 1457 1454 1452 1449 1447 1444
1511 1503 1490 1486 1496 1497 1499 1492 1493 1493 1494 1495 1495 1493 1492 1493 1492 1491 1490 1489 1487 1485 1483 1482 1480 1479 1477 1476 1474 1472 1469 1467 1465 1463 1461 1459 1457 1455 1452 1450 1447 1445 1442 1440
1507 1499 1487 1493 1496 1498 1493 1486 1491 1491 1492 1493 1493 1492 1491 1490 1489 1488 1487 1486 1484 1482 1481 1479 1477 1475 1473 1472 1470 1468 1466 1463 1461 1459 1457 1455 1452 1450 1448 1445 1443 1440 1437 1435
1503 1498 1489 1494 1495 1493 1489 1489 1489 1490 1490 1490 1490 1489 1488 1487 1486 1485 1484 1482 1481 1479 1477 1476 1474 1472 1470 1468 1466 1464 1462 1459 1457 1455 1453 1450 1448 1446 1443 1441 1438 1436 1433 1430
1493 1490 1490 1491 1490 1489 1489 1489 1488 1488 1489 1488 1487 1486 1486 1485 1484 1482 1481 1479 1477 1476 1474 1472 1470 1468 1466 1464 1462 1460 1458 1455 1453 1451 1449 1447 1444 1442 1439 1437 1435 1432 1429 1426
1493 1489 1489 1489 1488 1488 1488 1487 1487 1487 1486 1486 1484 1484 1483 1482 1480 1479 1477 1476 1474 1472 1470 1468 1467 1465 1462 1460 1458 1456 1454 1451 1449 1447 1445 1443 1441 1439 1436 1434 1431 1429 1426 1423
1490 1488 1487 1485 1485 1485 1485 1485 1485 1484 1484 1483 1482 1481 1480 1479 1477 1476 1474 1472 1471 1469 1467 1465 1463 1461 1459 1457 1454 1452 1450 1448 1446 1444 1442 1439 1437 1435 1433 1431 1429 1425 1422 1420
1483 1484 1485 1483 1483 1483 1482 1482 1482 1481 1480 1480 1479 1478 1477 1475 1474 1473 1471 1469 1467 1465 1463 1461 1459 1457 1455 1453 1451 1448 1446 1444 1443 1440 1438 1436 1433 1431 1429 1427 1424 1422 1420 1417
1483 1482 1481 1481 1481 1481 1480 1479 1479 1478 1478 1477 1476 1475 1474 1472 1471 1469 1467 1466 1464 1462 1460 1458 1456 1454 1452 1449 1447 1445 1443 1441 1439 1437 1435 1433 1431 1428 1425 1423 1421 1418 1416 1413
1480 1479 1478 1478 1478 1478 1477 1477 1476 1475 1475 1474 1473 1472 1471 1469 1468 1466 1464 1462 1460 1458 1456 1455 1452 1450 1448 1446 1444 1443 1441 1439 1437 1435 1433 1430 1428 1426 1423 1420 1417 1414 1412 1409
1476 1476 1476 1475 1475 1475 1474 1474 1473 1472 1471 1471 1470 1469 1467 1466 1464 1463 1461 1459 1457 1455 1453 1451 1449 1447 1445 1443 1442 1440 1438 1436 1434 1432 1430 1428 1425 1423 1421 1418 1415 1412 1409 1406
1473 1473 1473 1473 1472 1472 1471 1471 1470 1469 1468 1467 1466 1465 1464 1463 1461 1459 1457 1456 1454 1451 1449 1447 1446 1444 1442 1441 1439 1437 1435 1433 1431 1429 1427 1425 1423 1420 1418 1415 1413 1410 1407 1403
1471 1470 1470 1469 1469 1469 1468 1468 1467 1466 1465 1464 1463 1462 1460 1459 1457 1455 1454 1452 1450 1448 1446 1444 1443 1441 1439 1438 1436 1434 1432 1431 1429 1427 1424 1422 1420 1418 1415 1413 1410 1407 1405 1402
1469 1469 1468 1467 1466 1466 1465 1465 1464 1463 1462 1461 1460 1458 1457 1455 1453 1451 1450 1448 1446 1445 1443 1441 1440 1438 1437 1435 1434 1432 1430 1428 1426 1424 1422 1420 1417 1415 1413 1410 1408 1405 1402 1399
1466 1466 1466 1466 1465 1464 1463 1462 1461 1460 1459 1457 1456 1455 1453 1451 1450 1448 1446 1444 1442 1441 1439 1438 1437 1435 1434 1433 1431 1430 1428 1426 1424 1422 1420 1418 1415 1413 1410 1408 1405 1403 1400 1397
1464 1464 1463 1463 1462 1461 1460 1459 1458 1457 1456 1454 1453 1451 1450 1448 1447 1445 1443 1441 1440 1438 1436 1435 1434 1433 1431 1430 1429 1428 1426 1424 1422 1420 1418 1415 1413 1410 1408 1406 1403 1401 1398 1396
1463 1462 1462 1461 1460 1459 1458 1456 1455 1454 1452 1451 1450 1448 1447 1445 1444 1442 1440 1438 1437 1436 1434 1433 1431 1430 1429 1428 1427 1425 1424 1422 1420 1418 1416 1413 1411 1408 1406 1403 1401 1398 1396 1393
1462 1461 1460 1459 1458 1456 1455 1454 1453 1451 1449 1448 1447 1445 1444 1442 1441 1439 1437 1436 1435 1433 1431 1430 1429 1428 1427 1425 1424 1423 1421 1419 1417 1415 1413 1411 1408 1406 1403 1400 1398 1396 1393 1391
1461 1460 1459 1457 1456 1455 1453 1452 1450 1449 1447 1446 1444 1443 1441 1439 1438 1436 1435 1434 1432 1431 1429 1428 1427 1425 1424 1423 1422 1420 1419 1417 1415 1413 1411 1408 1406 1403 1401 1398 1396 1393 1391 1388
1459 1458 1457 1456 1455 1453 1451 1450 1448 1447 1445 1443 1442 1440 1439 1437 1435 1434 1433 1431 1430 1428 1427 1426 1425 1423 1422 1420 1419 1417 1416 1414 1412 1410 1408 1405 1403 1400 1398 1396 1393 1391 1388 1386
1458 1457 1456 1454 1453 1451 1450 1448 1446 1444 1443 1441 1440 1438 1437 1435 1434 1432 1431 1429 1428 1426 1425 1424 1422 1421 1419 1418 1416 1415 1413 1411 1409 1407 1405 1402 1400 1398 1395 1393 1390 1388 1385 1383
1457 1456 1454 1453 1452 1450 1448 1446 1444 1443 1441 1439 1438 1436 1435 1433 1432 1430 1429 1427 1426 1424 1423 1421 1420 1418 1417 1415 1413 1412 1410 1408 1406 1404 1402 1399 1397 1395 1392 1390 1387 1385 1382 1380
1456 1454 1453 1451 1450 1448 1447 1445 1443 1441 1440 1438 1436 1434 1433 1431 1430 1428 1427 1425 1424 1422 1421 1419 1417 1416 1414 1412 1411 1409 1407 1405 1403 1401 1398 1396 1394 1391 1389 1386 1384 1381 1379 1376